CYROCUBE

Last updated on Tue Feb 25 2020 00:02:06 GMT+0000 (Coordinated Universal Time)

1 45258U 98067RB 20055.22699524 .00004196 00000-0 81843-4 0 9993 2 45258 51.6414 192.3124 0006053 281.1885 78.8423 15.49862650 756
UTC large
Height (km)
Speed (km/s)
/
Latitude / Longitude
Inclination (degrees)
Orbital Period (minutes)
Azimuth
Elevation
Range (km)
Doppler Factor

Next 0 passes for location: London (51.5072 / 0.1276)

Sorry there are no passes over London.